Weather History for Omak, WA

Change the Weather History Date:

Sunday, April 22, 2012

  Actual Average Record
Temperature  
Mean Temperature 61 °F 51 °F  
Max Temperature 81 °F 65 °F 93 °F (1934)
Min Temperature 40 °F 38 °F 21 °F (1972)
Degree Days  
Heating Degree Days 4 14  
Month to date heating degree days 375 349  
Since 1 July heating degree days 6215 5939  
Cooling Degree Days 0 0  
Month to date cooling degree days 0 0  
Year to date cooling degree days 0 0  
Growing Degree Days 12 (Base 50)    
Moisture  
Dew Point 41 °F    
Average Humidity 51    
Maximum Humidity 76    
Minimum Humidity 26    
Precipitation  
Precipitation 0.00 in 0.04 in 0.60 in (2014)
Month to date precipitation 0.34 0.77  
Year to date precipitation 4.44 4.93  
Sea Level Pressure  
Sea Level Pressure 29.95 in    
Wind  
Wind Speed 6 mph (WSW)    
Max Wind Speed 15 mph    
Max Gust Speed 22 mph    
Visibility 10 miles    
Events      
T = Trace of Precipitation, MM = Missing Value Source: NWS Daily Summary

Daily Weather History Graph

Daily Weather History Graph

Search for Another Location

Airport:

Trip Planner

Search our weather history database for the weather conditions in past years. The results will help you decide how hot, cold, wet, or windy it might be!

Date:

Astronomy

Apr. 22, 2012 Rise Set
Actual Time 5:53 AM PDT 8:00 PM PDT
Civil Twilight 5:19 AM PDT 8:34 PM PDT
Nautical Twilight 4:37 AM PDT 9:16 PM PDT
Astronomical Twilight 3:50 AM PDT 10:04 PM PDT
Moon 6:19 AM PDT (4/22) 9:51 PM PDT (4/22)
Length of Visible Light 15h 14m
Length of Day
14h 06m
New Moon, 2% of the Moon is Illuminated
Apr 22
New Moon
Apr 29
First Quarter
May 5
Full
May 12
Last Quarter
May 20
New

Hourly Weather History & Observations

Time (PDT) Temp. Windchill Dew Point Humidity Pressure Visibility Wind Dir Wind Speed Gust Speed Precip Events Conditions
12:53 AM 51.1 °F - 36.0 °F 56% 30.06 in 10.0 mi West 6.9 mph - N/A   Clear
1:53 AM 50.0 °F - 36.0 °F 59% 30.05 in 10.0 mi West 5.8 mph - N/A   Clear
2:53 AM 48.9 °F - 36.0 °F 61% 30.05 in 10.0 mi West 6.9 mph - N/A   Clear
3:53 AM 44.1 °F 41.5 °F 36.0 °F 73% 30.06 in 10.0 mi WSW 4.6 mph - N/A   Clear
4:53 AM 45.0 °F 42.6 °F 36.0 °F 71% 30.05 in 10.0 mi West 4.6 mph - N/A   Clear
5:53 AM 42.1 °F - 36.0 °F 79% 30.06 in 10.0 mi Calm Calm - N/A   Clear
6:53 AM 44.1 °F - 37.9 °F 79% 30.05 in 10.0 mi Calm Calm - N/A   Clear
7:53 AM 51.1 °F - 39.9 °F 66% 30.05 in 10.0 mi Calm Calm - N/A   Clear
8:53 AM 55.9 °F - 39.9 °F 55% 30.04 in 10.0 mi SE 3.5 mph - N/A   Clear
9:53 AM 59.0 °F - 39.0 °F 48% 30.03 in 10.0 mi Calm Calm - N/A   Clear
10:53 AM 63.0 °F - 39.9 °F 43% 30.01 in 10.0 mi Variable 3.5 mph - N/A   Clear
11:53 AM 69.1 °F - 42.1 °F 38% 29.98 in 10.0 mi South 8.1 mph - N/A   Clear
12:53 PM 73.9 °F - 43.0 °F 33% 29.95 in 10.0 mi South 8.1 mph - N/A   Clear
1:53 PM 77.0 °F - 44.1 °F 31% 29.92 in 10.0 mi South 8.1 mph - N/A   Clear
2:53 PM 79.0 °F - 42.1 °F 27% 29.90 in 10.0 mi SSW 12.7 mph 17.3 mph N/A   Clear
3:53 PM 80.1 °F - 42.1 °F 26% 29.88 in 10.0 mi SSW 11.5 mph - N/A   Clear
4:53 PM 80.1 °F - 43.0 °F 27% 29.85 in 10.0 mi SSW 6.9 mph - N/A   Clear
5:53 PM 81.0 °F - 43.0 °F 26% 29.84 in 10.0 mi South 5.8 mph - N/A   Clear
6:53 PM 79.0 °F - 44.1 °F 29% 29.83 in 10.0 mi SW 3.5 mph - N/A   Clear
7:53 PM 72.0 °F - 46.0 °F 40% 29.83 in 10.0 mi WSW 4.6 mph - N/A   Clear
8:53 PM 64.0 °F - 46.0 °F 52% 29.85 in 10.0 mi WNW 4.6 mph - N/A   Clear
9:53 PM 64.9 °F - 43.0 °F 45% 29.85 in 10.0 mi WNW 9.2 mph - N/A   Clear
10:53 PM 62.1 °F - 43.0 °F 50% 29.84 in 10.0 mi WNW 8.1 mph - N/A   Clear
11:53 PM 59.0 °F - 43.0 °F 55% 29.84 in 10.0 mi WNW 6.9 mph - N/A   Clear